Regional Weather Roundup
Issued by NWS

Home | Current Version | Previous Version | Graphics & Text | Print | Product List | Glossary On
Versions: 1 2 3 4 5 6 7 8 9 10 11 12 13 14 15 16 17 18 19 20 21 22 23 24 25 26 27 28 29 30 31 32 33 34 35 36 37 38 39 40 41 42 43 44 45 46 47 48 49 50
000
ASUS43 KLSX 140059
RWRMO

WEATHER SUMMARY FOR MISSOURI
NATIONAL WEATHER SERVICE SPRINGFIELD MO
800 PM CDT SUN JUL 13 2014

NOTE: "FAIR" INDICATES FEW OR NO CLOUDS BELOW 12,000 FEET WITH NO
       SIGNIFICANT WEATHER AND/OR OBSTRUCTIONS TO VISIBILITY.
       CURRENT SKY AND/OR WEATHER CONDITIONS ARE NOT AVAILABLE FOR
       CHILLICOTHE AND FARMINGTON.

MOZ001>031-035>038-043-044-053-054-140200-
...NORTHERN AND WESTERN MISSOURI...

CITY           SKY/WX    TMP DP  RH WIND       PRES   REMARKS
KANSAS CTY INT PTCLDY    83  69  62 N3        29.99R
KANSAS C DTWN  PTCLDY    84  67  56 NE8       29.97R
LEE`S SUMMIT   PTCLDY    81  69  67 N8        29.99R
ST JOSEPH      CLEAR     82  72  71 NW3       29.97R
CHILLICOTHE      N/A     82  71  69 CALM      29.97R
KIRKSVILLE     CLEAR     82  73  74 CALM      29.96F

$$
MOZ066>068-077>081-088>096-101>105-140200-
...SOUTHWEST MISSOURI...

CITY           SKY/WX    TMP DP  RH WIND       PRES   REMARKS
SPRINGFIELD    MOCLDY    84  74  71 NW5       29.96S HX  91
JOPLIN         PTCLDY    86  71  60 NE3       29.95S HX  91

$$
MOZ032>034-039>042-045>050-055>058-069>072-140200-
...CENTRAL MISSOURI...

CITY           SKY/WX    TMP DP  RH WIND       PRES   REMARKS
COLUMBIA       RAIN      74  73  97 N6        29.96F FOG
JEFFERSON CITY MOCLDY    78  75  90 N3        29.94S
ROLLA          MOCLDY    79  71  76 N6        29.95F
SEDALIA        MOCLDY    75  73  93 N3        29.98F
OSAGE BEACH    MOCLDY    81  72  74 NE6       29.95F

$$
MOZ051-052-059>065-140200-
...EAST CENTRAL MISSOURI...

CITY           SKY/WX    TMP DP  RH WIND       PRES   REMARKS
ST LOUIS INTL  CLOUDY    80  73  79 NW6       29.94F
SPIRIT OF STL  MOCLDY    77  73  87 CALM      29.92F
ST CHARLES     CLOUDY    78  72  81 NW5       29.93S

$$
MOZ072>076-082>087-097>100-106>115-140200-
...SOUTH CENTRAL AND SOUTHEAST MISSOURI...

CITY           SKY/WX    TMP DP  RH WIND       PRES   REMARKS
CAPE GIRARDEAU PTCLDY    86  74  67 SW7       29.92F HX  94
FARMINGTON     CLOUDY    75  70  83 E3        29.98F
POPLAR BLUFF   CLEAR     85  73  67 SW5       29.93S HX  91
WEST PLAINS    PTCLDY    83  71  67 S6        29.98F

$$



USA.gov is the U.S. government's official web portal to all federal, state and local government web resources and services.